EW0446 Weather Reports


time (UTC)temp
C
wind
direction
speed
KPH
gust
KPH
rain 1hr
cm
rain 24hr
cm
rain mn
cm
humidity
%
barometer
mb
20260502123008 2 16 0.0 0.0 0.00 0.00 0.00 83 1022.0
20260502121507 2 16 0.0 0.0 0.00 0.00 0.00 84 1021.8
20260502114504 1 15 0.0 0.0 0.00 0.00 0.00 84 1021.5
20260502113002 1 15 0.0 0.0 0.00 0.00 0.00 84 1021.4
20260502111600 1 15 0.0 0.0 0.00 0.00 0.00 83 1021.2
20260502110059 1 15 0.0 0.0 0.00 0.00 0.00 83 1021.3
20260502104556 1 15 0.0 0.0 0.00 0.00 0.00 82 1021.2
20260502103055 1 15 0.0 0.0 0.00 0.00 0.00 82 1021.1
20260502101559 2 15 0.0 0.0 0.00 0.00 0.00 83 1020.9
20260502070036 3 15 0.0 0.0 0.00 0.00 0.00 75 1020.5
20260502064535 3 15 0.0 0.0 0.00 0.00 0.00 73 1020.5
20260502063039 3 15 0.0 0.0 0.00 0.00 0.00 70 1020.5
20260502061527 5 15 0.0 0.0 0.00 0.00 0.00 68 1020.4
20260502060026 5 15 0.0 0.0 0.00 0.00 0.00 67 1020.5
20260502054524 5 15 0.0 0.0 0.00 0.00 0.00 66 1020.5
20260502053022 5 15 0.0 0.0 0.00 0.00 0.00 65 1020.5
20260502051523 6 15 0.0 3.2 0.00 0.00 0.00 62 1020.4
20260502050031 6 15 0.0 0.0 0.00 0.00 0.00 59 1020.2
20260502044514 6 16 0.0 0.0 0.00 0.00 0.00 58 1020.1
20260502043013 7 16 0.0 0.0 0.00 0.00 0.00 57 1020.1
20260502041518 7 16 0.0 3.2 0.00 0.00 0.00 55 1019.9
20260502040012 7 16 0.0 0.0 0.00 0.00 0.00 53 1019.9
20260502034512 7 360 0.0 0.0 0.00 0.00 0.00 53 1019.9
20260502033016 8 360 0.0 0.0 0.00 0.00 0.00 51 1019.8
20260502031507 8 360 0.0 0.0 0.00 0.00 0.00 49 1019.8
20260502030020 9 360 1.6 3.2 0.00 0.00 0.00 48 1019.5
20260502024506 9 360 3.2 6.4 0.00 0.00 0.00 46 1019.3
20260502023006 10 351 4.8 8.0 0.00 0.00 0.00 44 1019.0
20260502021506 10 346 6.4 11.3 0.00 0.00 0.00 43 1018.7
20260502020005 11 346 8.0 11.3 0.00 0.00 0.00 42 1018.4
20260502014504 11 327 11.3 16.1 0.00 0.00 0.00 40 1017.9
20260502013004 12 337 9.7 17.7 0.00 0.00 0.00 40 1017.7
20260502011512 12 346 11.3 17.7 0.00 0.00 0.00 39 1017.6
20260502010006 13 341 11.3 22.5 0.00 0.00 0.00 38 1017.4
20260502004509 13 315 14.5 25.7 0.00 0.00 0.00 36 1017.2
20260502003002 14 335 20.9 32.2 0.00 0.00 0.00 34 1017.1
20260502001501 14 341 16.1 32.2 0.00 0.00 0.00 36 1016.9
20260502000002 15 356 16.1 27.4 0.00 0.00 0.00 37 1016.9
20260501234600 15 351 14.5 25.7 0.00 0.00 0.00 37 1016.8
20260501233059 15 271 16.1 24.1 0.00 0.00 0.00 37 1016.6
20260501231557 15 311 19.3 27.4 0.00 0.00 0.00 38 1016.6
20260501230059 15 346 16.1 30.6 0.00 0.00 0.00 41 1016.5
20260501224556 15 331 19.3 33.8 0.00 0.00 0.00 38 1016.6
20260501223104 15 288 12.9 24.1 0.00 0.00 0.00 40 1016.7
20260501221558 15 250 16.1 30.6 0.00 0.00 0.00 42 1016.7
20260501214552 15 279 11.3 25.7 0.00 0.00 0.00 41 1016.8
20260501213055 16 298 12.9 32.2 0.00 0.00 0.00 40 1016.9
20260501211601 16 310 14.5 27.4 0.00 0.00 0.00 41 1017.2
20260501210054 15 335 16.1 30.6 0.00 0.00 0.00 41 1017.3
20260501204547 15 315 17.7 35.4 0.00 0.00 0.00 42 1017.4
20260501203045 15 356 16.1 29.0 0.00 0.00 0.00 40 1017.5
20260501201545 15 279 9.7 27.4 0.00 0.00 0.00 41 1017.6
20260501200045 16 304 22.5 35.4 0.00 0.00 0.00 39 1017.7
20260501194542 16 282 17.7 33.8 0.00 0.00 0.00 39 1017.7
20260501193041 16 285 9.7 32.2 0.00 0.00 0.00 40 1017.8
20260501191540 16 314 16.1 38.6 0.00 0.00 0.00 40 1017.9
20260501190046 16 346 17.7 27.4 0.00 0.00 0.00 38 1017.8
20260501184537 15 307 9.7 29.0 0.00 0.00 0.00 42 1017.8
20260501183036 15 307 12.9 32.2 0.00 0.00 0.00 40 1017.9
20260501181533 15 304 14.5 27.4 0.00 0.00 0.00 42 1018.1
20260501180045 15 312 14.5 25.7 0.00 0.00 0.00 44 1018.1
20260501174537 15 305 9.7 29.0 0.00 0.00 0.00 43 1018.4
20260501173031 15 292 12.9 30.6 0.00 0.00 0.00 47 1018.4
20260501171530 15 297 12.9 27.4 0.00 0.00 0.00 46 1018.4
20260501170037 15 351 14.5 29.0 0.00 0.00 0.00 45 1018.3
20260501164526 14 242 11.3 20.9 0.00 0.00 0.00 50 1018.2
20260501163023 13 311 11.3 33.8 0.00 0.00 0.00 52 1018.5
20260501161530 13 275 14.5 30.6 0.00 0.00 0.00 53 1018.5
20260501160020 13 266 14.5 27.4 0.00 0.00 0.00 53 1018.4
20260501154518 13 253 9.7 25.7 0.00 0.00 0.00 54 1018.4
20260501153015 12 290 14.5 22.5 0.00 0.00 0.00 58 1018.5
20260501151519 12 250 12.9 24.1 0.00 0.00 0.00 57 1018.5